Temperature
7 6 6 6 7 8 8 7 8 8 8 8 7 7 7 8 8 7 8 8 9 9 9 9 9 9 9 9 9 9 9 9 9 9 9 9 9 9 9 9 9 9 9 9
6 6 6 7 7 7 7 7 7 7 8 8 7 7 7 7 7 7 7 7 8 8 8 9 9 9 9 9 9 9 9 9 9 9 9 9 9 9 9 9 9 9 9 9
6 6 7 7 7 7 7 6 6 6 7 7 7 6 6 6 7 7 8 8 8 7 8 8 8 8 8 8 8 8 8 8 8 8 8 8 8 8 8 8 8 8 8 8
5 6 7 6 6 6 6 6 6 6 5 5 6 5 6 6 6 6 6 7 7 7 7 7 7 7 7 8 8 8 8 8 8 8 8 8 8 8 8 8 8 8 8 8
5 6 6 6 6 6 6 6 6 5 5 4 4 4 5 5 5 5 5 6 7 7 7 7 7 7 7 7 7 7 7 7 7 7 7 7 7 7 7 7 7 7 7 7
5 5 5 6 6 6 6 5 4 3 3 4 4 4 5 4 5 5 5 6 6 6 6 6 6 6 6 6 6 6 6 6 6 6 6 6 6 6 6 7 7 7 7 7
4 5 5 5 5 5 5 4 3 3 2 3 4 4 4 5 4 5 5 6 6 6 6 6 6 6 6 6 6 6 6 6 6 6 6 6 6 6 6 6 6 6 6 6
3 3 4 5 5 4 4 4 3 3 3 3 3 3 4 4 4 5 6 6 6 5 6 6 5 5 5 5 5 5 5 5 5 5 5 5 5 5 5 5 5 5 6 6
3 3 4 4 5 5 4 3 3 2 2 2 3 3 4 4 4 4 4 5 4 5 5 5 5 4 4 4 4 4 4 4 4 4 4 4 4 4 4 5 5 5 5 5
3 2 3 3 4 4 4 3 2 2 3 3 3 3 4 4 3 3 3 3 4 4 4 4 4 4 4 4 4 4 4 4 4 4 4 4 4 4 4 4 4 4 4 4
2 1 2 3 3 3 3 3 2 1 1 2 3 3 4 3 3 2 2 3 3 3 3 3 3 3 3 3 3 3 3 3 3 3 3 3 3 3 3 3 3 4 4 4
1 0 0 1 2 2 3 3 2 2 1 1 1 2 3 2 2 2 2 3 3 3 3 3 3 2 2 2 2 2 2 2 2 2 2 2 2 2 2 2 3 3 3 3
1 0 1 1 1 1 1 2 1 1 0 -0 1 2 2 1 2 2 2 2 2 2 2 2 2 2 2 2 2 2 2 2 2 1 1 1 1 1 2 2 2 2 2 2
1 -0 1 2 2 1 1 1 1 1 0 -1 0 2 2 1 1 1 1 2 2 2 1 1 1 1 1 1 1 1 1 1 1 1 1 1 1 1 1 1 1 1 1 1
0 -1 -1 -0 0 0 0 1 0 0 0 0 1 1 1 1 0 1 1 1 1 1 1 1 1 0 0 0 0 0 0 0 0 -0 -0 -0 0 0 0 0 0 1 1 1
-2 -1 -1 -1 -0 -0 0 0 0 0 -0 -0 -0 -0 0 1 1 0 0 0 0 0 0 0 -0 -0 -0 -1 -1 -0 -0 -0 -1 -1 -0 -0 -0 -0 -0 -0 -0 -0 -0 0
-2 -2 -1 -1 -1 -0 -0 -1 -0 -0 -1 -1 -0 0 -0 -1 -1 -0 0 0 -0 0 -0 -0 -1 -1 -1 -1 -1 -1 -1 -1 -1 -1 -1 -1 -1 -1 -1 -1 -1 -1 -1 -1
-3 -3 -2 -2 -1 -1 1 -1 -1 -1 -1 -1 -1 -1 -1 -1 -0 0 0 0 -0 -0 -1 -1 -1 -1 -1 -1 -1 -1 -2 -2 -2 -2 -2 -2 -2 -2 -1 -1 -1 -1 -1 -1
-3 -2 -3 -3 -2 -1 -0 -1 -1 -1 -1 -2 -2 -2 -1 -1 -1 -1 0 -0 -0 -1 -1 -1 -1 -1 -1 -2 -2 -2 -2 -2 -2 -2 -2 -2 -2 -2 -2 -2 -2 -2 -2 -2
-4 -3 -3 -3 -2 -1 0 -1 -1 -1 -1 -1 -2 -2 -2 -2 -2 -2 -0 -1 -1 -1 -1 -1 -2 -2 -2 -2 -2 -2 -2 -2 -2 -3 -3 -2 -2 -2 -2 -2 -2 -2 -2 -2
-3 -3 -3 -3 -2 -2 -1 -2 -1 -1 -0 -1 -1 -2 -2 -3 -2 -1 -1 -1 -1 -1 -2 -2 -2 -2 -2 -3 -3 -3 -3 -3 -3 -3 -3 -3 -3 -3 -2 -3 -3 -3 -3 -3
-3 -4 -4 -3 -2 -1 -2 -2 -2 -1 -1 -1 -1 -1 -2 -2 -2 -2 -2 -2 -2 -2 -2 -2 -3 -3 -3 -3 -3 -3 -3 -3 -3 -3 -3 -3 -3 -3 -3 -3 -3 -3 -3 -3
-4 -3 -3 -3 -2 -2 -2 -1 -1 -1 -1 -1 -2 -2 -2 -2 -2 -2 -2 -2 -2 -3 -3 -3 -3 -3 -3 -3 -4 -4 -4 -4 -4 -4 -4 -4 -4 -4 -4 -4 -4 -4 -4 -4
-5 -5 -4 -4 -4 -3 -2 -2 -1 -1 -2 -2 -2 -2 -2 -2 -3 -3 -3 -3 -3 -3 -3 -3 -4 -4 -4 -4 -4 -4 -4 -4 -4 -4 -4 -4 -4 -4 -4 -4 -4 -4 -4 -4
-4 -5 -5 -5 -4 -3 -2 -2 -2 -2 -2 -2 -2 -2 -2 -3 -3 -3 -3 -3 -4 -4 -4 -4 -4 -4 -4 -4 -4 -4 -4 -4 -4 -4 -4 -5 -5 -5 -5 -5 -5 -5 -5 -5
-5 -5 -4 -3 -3 -4 -3 -2 -2 -2 -2 -2 -2 -3 -3 -3 -3 -3 -4 -4 -4 -4 -4 -4 -4 -5 -4 -4 -4 -4 -5 -5 -5 -5 -5 -5 -5 -5 -5 -5 -5 -5 -5 -5
Wind_Speed
2 3 5 7 7 4 4 4 4 4 2 3 7 8 8 5 3 4 4 4 3 3 2 0 1 1 2 1 2 1 1 0 1 0 0 1 1 1 1 1 1 2 2 2
2 4 6 4 4 2 2 3 3 2 2 2 5 8 7 6 6 6 7 6 4 2 1 0 1 1 1 1 1 1 1 0 0 0 1 1 1 1 1 1 1 2 2 2
6 3 3 4 4 4 3 5 5 3 3 2 2 6 6 5 5 5 5 5 4 4 4 2 0 0 1 1 0 0 0 0 0 0 0 1 1 1 0 1 1 2 2 2
3 3 2 3 5 5 5 4 4 3 1 3 2 5 7 6 5 6 6 5 5 5 4 3 1 0 0 1 0 1 1 1 1 0 1 1 1 2 2 2 2 2 2 3
3 2 3 4 5 5 4 1 1 2 3 2 2 4 8 3 7 8 7 7 7 6 5 4 3 3 1 1 0 1 1 1 1 1 1 1 2 2 2 2 2 2 3 3
1 1 1 3 1 3 3 3 4 3 2 4 7 6 8 5 8 7 7 7 7 5 4 3 2 2 1 1 1 1 2 2 1 1 1 1 2 2 2 2 3 2 2 2
1 2 1 1 2 1 3 4 2 2 2 7 4 6 9 6 6 7 7 7 6 4 4 3 2 1 1 0 1 1 1 2 2 1 1 1 2 2 3 3 3 3 2 2
2 4 3 2 4 4 4 6 6 5 6 4 3 7 7 5 4 3 4 4 4 4 4 4 3 2 1 1 1 1 1 2 2 2 2 2 2 2 2 3 3 3 3 3
4 4 1 1 2 5 5 4 4 4 1 2 5 6 6 2 1 1 2 2 3 3 2 2 1 1 0 0 1 1 1 1 2 2 2 2 2 2 2 2 2 2 3 3
4 2 3 1 1 1 4 5 4 4 4 5 5 5 5 5 5 3 2 3 3 2 1 1 1 0 1 1 1 1 1 1 2 2 2 2 2 2 2 2 3 3 3 3
3 3 2 1 4 5 4 4 4 4 4 4 4 6 4 6 6 5 5 3 3 3 2 2 1 1 1 1 1 2 2 2 2 2 2 2 2 2 2 2 3 3 3 3
3 3 2 4 3 1 4 5 6 5 5 4 3 7 4 2 3 3 3 1 2 2 1 1 1 0 1 2 2 2 2 2 2 2 2 2 2 2 2 3 3 3 2 2
4 4 1 3 2 1 2 3 4 4 3 4 5 7 2 1 1 0 1 1 0 1 0 0 0 1 2 2 2 3 2 3 3 3 3 3 3 2 2 2 3 3 2 2
3 4 6 7 5 4 4 5 5 5 5 6 9 9 7 4 3 3 2 1 1 1 1 1 1 1 2 2 2 3 3 3 3 3 3 3 3 3 3 3 2 3 3 3
3 3 3 4 4 3 6 8 8 9 9 9 9 9 10 7 6 5 3 2 1 1 1 2 1 1 2 2 3 3 3 3 3 3 3 4 4 3 3 3 3 3 3 3
3 3 1 3 4 4 7 9 10 10 8 9 8 11 8 5 2 3 3 3 3 3 3 3 2 2 2 2 3 3 4 4 3 3 4 4 4 3 3 3 3 3 3 3
2 4 2 3 3 3 7 8 9 6 6 8 11 10 3 3 4 6 5 4 5 5 4 4 3 3 3 3 3 3 4 4 4 4 4 4 4 4 4 4 3 3 3 3
5 4 2 1 1 6 7 2 5 6 6 8 6 5 5 6 5 5 5 5 5 4 4 3 3 4 3 3 3 3 3 3 4 4 5 5 4 5 4 4 4 4 3 3
4 5 3 3 3 7 6 3 3 4 6 5 7 7 5 3 2 3 4 4 4 4 4 4 4 3 3 3 3 3 4 4 4 4 5 5 5 5 5 4 4 4 3 3
3 3 3 3 4 6 6 2 1 2 4 4 4 5 4 1 2 5 2 2 3 3 2 2 2 2 3 3 3 3 4 4 4 5 5 5 5 4 4 4 4 4 3 4
3 3 5 5 5 7 5 2 2 3 5 2 3 4 3 5 6 4 2 2 2 2 2 2 2 2 3 3 2 3 4 5 5 5 5 5 4 4 4 4 3 3 4 4
7 6 6 5 5 8 3 3 5 5 2 1 1 2 3 4 3 3 2 2 1 1 2 1 2 3 3 3 2 3 5 5 5 4 4 4 4 4 3 3 3 3 3 4
6 7 5 7 7 3 3 5 3 2 2 2 2 3 3 3 3 2 2 2 2 2 2 2 2 3 4 3 3 4 5 5 4 4 4 4 4 4 4 3 3 3 3 3
3 2 3 4 6 5 4 3 2 2 3 3 3 3 3 3 4 3 2 2 2 2 2 2 2 3 4 4 4 4 5 4 4 4 4 4 4 4 3 3 3 3 3 4
5 4 3 5 6 4 4 4 4 3 3 3 3 3 4 4 4 3 3 3 3 3 2 2 2 3 5 5 4 4 4 3 3 4 4 4 4 4 3 4 4 4 4 5
4 6 6 6 5 4 5 3 3 3 3 4 3 2 2 3 4 3 3 3 3 3 2 2 3 4 4 4 5 5 4 3 3 4 4 3 3 3 3 3 4 6 6 8
Wind_Direction
118 117 193 203 196 194 184 192 221 234 237 196 222 241 246 236 202 197 200 201 206 222 242 182 78 68 71 71 88 121 113 44 92 84 166 205 225 221 220 216 195 187 179 176
85 231 227 199 185 182 197 214 234 285 312 228 245 258 248 226 215 204 203 209 212 228 270 343 55 55 75 100 97 101 129 182 196 242 240 221 220 215 223 246 268 230 204 197
186 219 203 184 181 190 221 208 219 227 337 341 298 282 242 235 225 221 212 205 201 196 200 212 226 44 84 94 297 308 294 248 270 296 53 34 52 33 274 246 237 256 241 227
208 251 204 181 200 188 226 221 206 204 182 266 201 266 262 232 228 225 222 214 210 208 198 195 191 139 157 249 331 5 350 334 335 63 157 187 220 247 239 230 229 259 253 246
216 198 185 204 215 185 203 199 179 201 182 265 240 230 275 222 227 231 224 218 217 213 200 199 198 196 195 186 53 5 1 358 349 344 228 215 233 243 262 270 236 236 248 247
226 260 196 193 183 164 131 63 39 38 84 251 223 204 266 223 216 220 220 219 217 212 205 200 191 160 149 77 49 25 16 340 333 326 273 227 233 236 239 260 250 243 245 250
313 288 267 133 109 74 111 114 54 345 287 246 217 213 249 244 223 208 211 215 212 203 194 187 174 162 159 74 5 355 359 332 329 334 309 274 252 236 228 237 246 250 250 252
180 259 222 183 183 182 187 163 170 201 225 264 235 229 254 259 239 217 204 201 194 198 198 191 184 172 195 221 268 300 314 306 320 326 314 301 279 253 245 242 241 248 248 249
179 239 295 191 177 158 164 194 173 147 185 252 251 267 293 259 268 240 202 182 196 204 193 178 160 132 138 287 280 269 273 284 297 300 302 298 299 282 272 264 245 250 255 259
154 205 274 296 78 201 164 150 124 156 187 241 265 254 238 224 230 235 225 220 209 193 186 185 178 248 307 303 308 314 307 281 289 299 295 304 296 284 271 267 259 256 258 262
138 159 303 334 202 196 164 168 165 165 180 185 244 262 237 210 207 207 224 219 202 202 197 202 225 270 301 329 344 348 343 338 327 318 310 305 300 301 300 286 275 262 259 254
147 136 218 252 268 254 202 193 166 179 223 196 204 267 289 215 210 200 217 228 219 202 201 206 208 280 342 332 331 332 332 336 325 323 319 310 306 310 310 301 294 281 269 270
144 133 94 333 325 334 223 204 180 155 151 183 199 258 306 17 355 210 195 218 202 149 152 94 359 347 328 327 328 321 322 324 329 330 328 318 310 309 300 295 300 296 281 275
136 159 187 207 222 199 230 231 201 178 199 219 227 248 272 272 273 278 257 229 210 206 207 223 278 308 319 327 331 330 325 326 327 328 320 312 303 295 287 287 291 290 286 278
117 180 217 251 266 235 239 240 222 216 211 215 238 241 253 248 243 239 225 216 213 261 264 250 260 289 309 325 329 326 322 322 323 323 314 305 303 302 302 297 290 286 288 287
120 167 192 279 271 257 265 254 234 232 227 232 250 262 261 261 246 239 225 223 237 252 257 261 272 287 293 298 305 313 314 316 319 314 308 308 309 310 308 302 295 292 290 289
157 149 158 257 299 324 269 240 216 214 211 202 228 243 261 261 243 234 228 229 234 244 251 259 266 264 269 273 283 292 301 308 310 306 306 306 303 304 301 300 297 286 284 287
153 145 160 208 49 243 249 242 205 218 239 219 225 243 239 238 248 241 220 215 234 245 250 260 265 272 278 281 287 291 298 299 298 300 301 302 300 296 296 294 290 285 284 285
169 158 163 170 223 272 282 254 188 200 260 231 223 244 257 269 291 271 219 203 219 234 244 250 251 261 277 282 282 290 297 296 294 292 292 292 292 289 291 290 288 290 291 290
122 141 164 175 201 241 250 242 196 135 273 244 209 236 246 194 248 259 232 239 262 267 258 265 274 275 273 280 283 285 290 293 290 289 288 286 284 284 282 281 284 291 290 285
149 174 198 205 227 259 256 248 129 182 251 252 215 230 217 214 227 251 265 274 269 273 281 282 284 274 272 280 281 278 282 281 287 295 297 296 292 286 282 285 285 289 291 292
177 180 195 184 213 250 223 147 187 224 267 253 245 237 231 238 259 266 252 251 261 291 300 295 290 290 290 282 273 278 280 287 297 302 302 302 299 294 297 296 299 294 289 289
197 195 192 197 218 247 202 207 224 198 225 248 243 245 225 237 256 267 257 257 261 261 270 278 275 294 300 291 273 273 287 301 304 305 304 302 302 302 300 293 294 298 291 285
247 200 185 246 264 262 254 247 252 228 234 246 240 232 210 227 248 257 254 261 270 275 273 280 287 296 299 300 293 282 292 301 300 298 302 305 304 304 303 299 292 289 287 283
223 179 200 247 265 282 268 235 236 237 238 245 248 227 215 211 230 229 239 254 261 276 279 274 269 279 291 300 302 303 302 301 299 297 299 301 301 295 296 296 286 282 273 271
203 188 197 234 232 221 257 252 219 227 243 239 232 246 240 213 216 225 242 250 256 264 273 278 278 283 293 300 302 304 303 300 298 302 302 297 296 292 291 295 301 294 288 293
Height
1492 1496 1498 1498 1498 1498 1500 1502 1503 1501 1499 1500 1501 1500 1498 1498 1498 1498 1498 1499 1499 1500 1501 1502 1502 1502 1503 1503 1503 1504 1504 1504 1505 1506 1506 1506 1507 1508 1509 1509 1510 1511 1512 1513
1496 1497 1494 1495 1496 1497 1499 1501 1503 1501 1499 1500 1501 1499 1496 1496 1495 1495 1496 1496 1497 1497 1498 1498 1499 1499 1500 1500 1500 1501 1501 1501 1502 1502 1503 1503 1504 1504 1505 1506 1507 1508 1509 1509
1493 1494 1492 1494 1496 1497 1499 1502 1503 1503 1501 1500 1502 1499 1495 1493 1493 1493 1493 1493 1494 1494 1495 1496 1496 1496 1497 1497 1498 1498 1498 1499 1499 1499 1500 1500 1500 1501 1502 1502 1503 1504 1505 1505
1493 1492 1492 1493 1495 1496 1499 1498 1499 1501 1506 1508 1505 1507 1494 1491 1491 1490 1490 1491 1491 1492 1492 1493 1493 1494 1494 1494 1495 1495 1496 1496 1496 1496 1496 1496 1496 1496 1497 1498 1499 1500 1501 1501
1492 1491 1491 1493 1494 1495 1497 1497 1499 1502 1506 1511 1508 1511 1496 1491 1490 1488 1487 1487 1488 1489 1489 1490 1491 1491 1492 1492 1492 1493 1493 1493 1493 1493 1493 1493 1493 1493 1494 1494 1495 1496 1496 1497
1491 1491 1491 1491 1492 1493 1496 1499 1503 1507 1510 1512 1507 1509 1496 1491 1485 1483 1483 1484 1485 1486 1487 1488 1489 1489 1489 1489 1489 1489 1490 1490 1490 1490 1490 1489 1490 1490 1490 1490 1491 1491 1492 1493
1493 1491 1490 1491 1493 1495 1497 1505 1514 1515 1519 1511 1503 1503 1492 1482 1480 1478 1479 1480 1482 1483 1484 1485 1486 1486 1486 1486 1486 1486 1486 1486 1486 1486 1486 1486 1486 1486 1486 1486 1487 1487 1488 1488
1496 1496 1490 1490 1491 1494 1496 1500 1509 1514 1515 1510 1503 1500 1486 1479 1477 1476 1477 1478 1480 1481 1482 1482 1483 1484 1484 1484 1484 1484 1483 1483 1483 1483 1483 1483 1483 1483 1483 1483 1483 1483 1484 1484
1495 1494 1489 1488 1489 1491 1495 1499 1500 1509 1513 1512 1502 1494 1483 1478 1477 1476 1476 1477 1478 1479 1480 1480 1481 1481 1481 1481 1481 1481 1480 1480 1480 1480 1480 1479 1479 1479 1479 1479 1479 1479 1480 1480
1491 1497 1492 1490 1489 1490 1492 1495 1503 1507 1508 1504 1498 1493 1484 1479 1477 1476 1476 1476 1476 1477 1478 1479 1479 1479 1479 1479 1479 1478 1478 1477 1477 1477 1476 1476 1476 1475 1475 1475 1475 1475 1476 1476
1490 1496 1496 1492 1492 1491 1493 1496 1498 1503 1505 1505 1502 1490 1475 1475 1474 1475 1475 1475 1475 1476 1476 1477 1477 1477 1477 1477 1476 1476 1475 1474 1474 1473 1473 1472 1472 1471 1471 1471 1471 1471 1471 1471
1489 1495 1499 1495 1491 1490 1489 1491 1496 1500 1503 1505 1505 1492 1474 1473 1472 1473 1474 1474 1474 1475 1475 1475 1476 1475 1475 1474 1474 1473 1472 1472 1471 1470 1470 1469 1468 1468 1467 1467 1467 1467 1467 1467
1488 1495 1499 1496 1496 1493 1491 1490 1493 1497 1501 1506 1503 1488 1474 1473 1473 1473 1473 1473 1473 1473 1474 1474 1474 1474 1473 1472 1472 1471 1470 1469 1468 1468 1467 1466 1465 1464 1464 1463 1463 1463 1462 1462
1485 1492 1494 1491 1488 1489 1490 1489 1491 1493 1498 1501 1494 1482 1475 1474 1473 1473 1473 1472 1472 1472 1472 1472 1472 1471 1471 1470 1469 1468 1468 1467 1466 1465 1463 1462 1462 1461 1460 1460 1459 1459 1459 1458
1484 1491 1491 1489 1487 1487 1486 1485 1487 1488 1487 1489 1482 1480 1473 1472 1472 1471 1471 1471 1471 1471 1470 1470 1469 1469 1469 1468 1467 1466 1465 1464 1463 1461 1460 1459 1459 1458 1457 1456 1456 1455 1455 1454
1486 1490 1491 1490 1486 1485 1484 1480 1481 1482 1482 1482 1480 1476 1469 1469 1470 1470 1470 1470 1469 1469 1468 1468 1467 1467 1466 1465 1464 1463 1462 1461 1459 1458 1457 1456 1455 1455 1454 1453 1452 1452 1451 1451
1487 1490 1492 1491 1488 1485 1483 1476 1475 1475 1475 1475 1475 1470 1468 1468 1468 1467 1467 1467 1467 1466 1466 1465 1464 1464 1463 1462 1461 1460 1458 1457 1456 1455 1454 1453 1452 1451 1451 1450 1449 1448 1448 1447
1486 1489 1492 1493 1491 1489 1473 1470 1469 1470 1469 1469 1467 1466 1465 1465 1464 1464 1464 1464 1464 1464 1463 1462 1462 1461 1460 1459 1458 1457 1456 1454 1453 1452 1451 1450 1449 1448 1447 1446 1446 1445 1444 1444
1482 1486 1491 1493 1491 1482 1472 1468 1468 1469 1467 1464 1464 1463 1463 1463 1462 1461 1461 1461 1461 1461 1460 1459 1459 1458 1457 1456 1455 1454 1452 1451 1450 1448 1447 1447 1446 1445 1444 1443 1442 1441 1441 1440
1482 1484 1489 1490 1487 1482 1468 1465 1464 1467 1467 1461 1460 1460 1460 1461 1464 1460 1458 1458 1458 1458 1457 1456 1455 1455 1454 1453 1452 1450 1449 1447 1446 1445 1444 1443 1442 1441 1441 1440 1439 1438 1437 1436
1484 1485 1486 1486 1484 1474 1466 1464 1465 1470 1464 1459 1458 1458 1458 1458 1458 1457 1456 1455 1455 1454 1454 1453 1452 1451 1450 1450 1448 1447 1445 1444 1443 1442 1441 1440 1439 1438 1437 1436 1435 1434 1433 1432
1479 1482 1483 1482 1481 1473 1462 1462 1464 1461 1458 1457 1456 1456 1456 1455 1454 1453 1453 1452 1452 1451 1450 1450 1449 1448 1447 1446 1445 1443 1442 1441 1440 1439 1438 1436 1435 1434 1433 1432 1431 1430 1429 1428
1472 1471 1470 1470 1467 1460 1458 1458 1457 1457 1456 1456 1455 1455 1454 1453 1452 1451 1450 1450 1449 1448 1448 1447 1446 1445 1444 1443 1442 1440 1439 1438 1437 1435 1434 1433 1432 1431 1430 1429 1428 1427 1425 1424
1467 1466 1467 1466 1460 1457 1456 1455 1455 1455 1454 1454 1453 1453 1452 1451 1450 1449 1448 1447 1447 1446 1445 1444 1443 1442 1441 1440 1439 1438 1436 1435 1434 1432 1431 1430 1429 1427 1426 1425 1424 1423 1421 1420
1462 1463 1464 1462 1457 1455 1453 1453 1453 1452 1452 1451 1450 1450 1449 1448 1447 1447 1446 1446 1445 1443 1443 1442 1441 1439 1438 1437 1436 1435 1433 1432 1430 1429 1428 1426 1426 1424 1423 1422 1420 1419 1418 1417
1457 1458 1459 1456 1452 1453 1451 1450 1450 1450 1449 1448 1448 1447 1447 1446 1445 1445 1444 1443 1442 1441 1440 1439 1438 1437 1436 1434 1433 1432 1430 1429 1427 1425 1424 1423 1422 1421 1420 1418 1417 1415 1415 1413